Location: Greenwich
(51.4790°N, 0.0090°E)
Time: 16:56:44
(UTC+01:00)

Tiangong - Pass Details

Date: 01 October 2021
Orbit: 382 x 385 km, 41.5° (Epoch: 17 October)

Event Time Altitude Azimuth Distance (km) Brightness Sun altitude
Exits shadow 06:21:52 - 232° (SW) 1,760 3.9 -6.9°
Reaches altitude 10° 06:23:13 10° 216° (SW) 1,397 3.5 -6.7°
Maximum altitude 06:24:53 14° 184° (S) 1,201 3.5 -6.4°
Drops below altitude 10° 06:26:34 10° 151° (SSE) 1,396 4.3 -6.2°
Sets 06:29:22 0° 124° (SE) 2,247 5.9 -5.7°
